Location: Lafig�re
(44.4503°N, 4.0357°E)
Time: 06:19:17
(UTC+00:00)

Transit 2A Rocket - Pass Details

Date: 26 June 2021
Orbit: 590 x 913 km, 66.7° (Epoch: 26 July)

Event Time Altitude Azimuth Distance (km) Brightness Sun altitude
Exits shadow 00:45:41 - 273° (W) 2,781 7.8 -20.9°
Reaches altitude 10° 00:49:11 10° 305° (NW) 1,973 7.4 -20.7°
Maximum altitude 00:50:50 12° 327° (NNW) 1,875 7.5 -20.6°
Drops below altitude 10° 00:52:32 10° 349° (N) 2,022 8.1 -20.5°
Sets 00:56:27 0° 22° (NNE) 3,007 9.7 -20.3°
